Terminal Aerodrome Forecast
Issued by NWS Twin Cities, MN

Home | Current Version | Previous Version | Graphics & Text | Print | Product List | Glossary On
Versions: 1 2 3 4 5 6 7 8 9 10 11 12 13 14 15 16 17 18 19 20 21 22 23 24 25 26 27 28 29 30 31 32 33 34 35
000
FTUS43 KMPX 300800 AAA
TAFMSP
TAF AMD
KMSP 300847Z 3009/3112 35004KT 6SM BR BKN008 OVC012
     FM301500 34005KT P6SM SCT012 OVC020
     FM301800 34005KT P6SM BKN025 OVC040
     FM302000 VRB03KT P6SM SCT025 BKN050
     FM310300 14003KT P6SM FEW250=

USA.gov is the U.S. government's official web portal to all federal, state and local government web resources and services.